THORAD DELTA 1 DEB, 8564

Orbit data source: Space-Track

THORAD DELTA 1 DEB, 8564 is space debris in SSO originally from a launch on Fri, 15 Nov 1974 UTC launched from the Air Force Western Test Range (AFWTR). Debris objects in space refer to the collection of defunct objects orbiting the Earth. Examples of debris include non-operational satellites, rocket bodies, and fragments generated from explosions, collisions, or faulty payload assembly.

Loading next visibility...
Identifier
8564, 1974-089DB
Orbit
SSO
Country
Flag of USUS
Related business
Manufacturer
Unknown
Mission
Spacecraft
Bus & Motor
Unknown
Mass
Unknown
Launch date (UTC)
1974-11-15 (51 years ago)
Launch vehicle
Unknown
Launch site
Air Force Western Test Range (AFWTR)
Object type
Payload
Rocket body
Debris
Shape & HBR
Unknown shape, 0.1 m
Radar Cross Section
Small (<0.1 m²)

Expand to show TLE details & history
Last TLE update: 11 hours ago

TLE from 11 hours ago
0 THORAD DELTA 1 DEB
1  8564U 74089DB  25300.51974190  .00000912  00000-0  48593-2 0  9990
2  8564 101.2445 200.1735 0041041 115.4969  65.3494 12.69037573344224
Epoch: 2025-10-27T12:28Z
TLE epoch observation values (Epoch: 2025-10-27T12:28:25.700Z)
Latitude
-1.36419°
Longitude
156.67608°
Altitude
1,375.485 km
Speed
7.177 km/s
True Right ascension
01h 19m 36s
True Declination
-1° 21' 24"
Sunlit
Object was in full shadow at epoch
Visualization orbit readout
Latitude
Unknown
Longitude
Unknown
Altitude
Unknown
Speed
Unknown
Apparent Right ascension
Unknown
Apparent Declination
Unknown
Sunlit
N/A
Visualization observer readout
Local Sidereal Time
19:07:20
Azimuth
Unknown
Elevation
Unknown
Doppler factor
Unknown
Orbital elements
Apogee altitude
1,415.209 km
Perigee altitude
1,351.502 km
Semi-major axis
7,761.492 km
Eccentricity
0.0041
Inclination
101.2445°
RAAN
200.1735°
Arg. of periapsis
115.4969°
True anomaly
65.77775°
Mean anomaly
65.3494°
Eccentric anomaly
65.56348°
Mean motion
3.17413 °/min
Orbital period
113.42 mins
BSTAR
0.0048593
Loading maneuver chart data...
Computing Atmospheric mass density...

Documentation

Showing up to 5 results
|